| time (UTC) | temp F | wind direction | speed MPH | gust MPH | rain 1hr in | rain 24hr in | rain mn in | humidity % | barometer mb |
| 20260509221505 | 57 | 155 | 0.0 | 0.0 | 0.00 | 0.01 | 0.00 | 72 | 1011.6 |
| 20260509220008 | 57 | 155 | 0.0 | 0.0 | 0.00 | 0.01 | 0.00 | 72 | 1011.7 |
| 20260509214510 | 57 | 155 | 0.0 | 0.0 | 0.00 | 0.01 | 0.01 | 73 | 1011.8 |
| 20260509213019 | 57 | 155 | 0.0 | 2.0 | 0.00 | 0.01 | 0.01 | 73 | 1011.8 |
| 20260509211522 | 58 | 155 | 0.0 | 0.0 | 0.00 | 0.03 | 0.01 | 72 | 1011.8 |
| 20260509210012 | 59 | 155 | 0.0 | 0.0 | 0.00 | 0.06 | 0.01 | 70 | 1011.6 |
| 20260509204509 | 60 | 155 | 0.0 | 0.0 | 0.00 | 0.12 | 0.01 | 69 | 1011.6 |
| 20260509203017 | 61 | 155 | 0.0 | 1.0 | 0.00 | 0.15 | 0.01 | 66 | 1011.4 |
| 20260509201521 | 62 | 155 | 0.0 | 0.0 | 0.00 | 0.18 | 0.01 | 65 | 1011.3 |
| 20260509200025 | 62 | 155 | 0.0 | 1.0 | 0.00 | 0.18 | 0.01 | 64 | 1011.1 |
| 20260509194511 | 63 | 209 | 0.0 | 3.0 | 0.00 | 0.18 | 0.01 | 64 | 1011.1 |
| 20260509193010 | 63 | 209 | 3.0 | 5.0 | 0.00 | 0.18 | 0.01 | 63 | 1010.9 |
| 20260509191514 | 64 | 119 | 0.0 | 0.0 | 0.00 | 0.18 | 0.01 | 62 | 1010.9 |
| 20260509190022 | 65 | 119 | 1.0 | 3.0 | 0.00 | 0.18 | 0.01 | 60 | 1010.7 |
| 20260509184526 | 65 | 111 | 2.0 | 5.0 | 0.00 | 0.18 | 0.01 | 58 | 1010.6 |
| 20260509183020 | 67 | 99 | 3.0 | 6.0 | 0.00 | 0.18 | 0.01 | 56 | 1010.4 |
| 20260509181502 | 68 | 94 | 5.0 | 8.0 | 0.00 | 0.18 | 0.01 | 54 | 1010.2 |
| 20260509180004 | 68 | 87 | 6.0 | 9.0 | 0.00 | 0.18 | 0.01 | 52 | 1010.1 |
| 20260509174507 | 69 | 134 | 6.0 | 12.0 | 0.00 | 0.18 | 0.01 | 52 | 1010.0 |
| 20260509173008 | 70 | 98 | 4.0 | 9.0 | 0.00 | 0.18 | 0.01 | 52 | 1010.2 |
| 20260509171512 | 71 | 91 | 4.0 | 7.0 | 0.00 | 0.18 | 0.01 | 51 | 1010.4 |
| 20260509170003 | 71 | 103 | 4.0 | 10.0 | 0.00 | 0.18 | 0.01 | 51 | 1010.4 |
| 20260509164507 | 71 | 106 | 5.0 | 14.0 | 0.00 | 0.18 | 0.01 | 49 | 1010.4 |
| 20260509163005 | 72 | 120 | 6.0 | 13.0 | 0.00 | 0.18 | 0.01 | 46 | 1010.5 |
| 20260509161511 | 72 | 147 | 8.0 | 14.0 | 0.00 | 0.18 | 0.01 | 46 | 1010.7 |
| 20260509160016 | 73 | 92 | 6.0 | 12.0 | 0.00 | 0.18 | 0.01 | 46 | 1010.7 |
| 20260509154504 | 73 | 133 | 4.0 | 8.0 | 0.00 | 0.18 | 0.01 | 47 | 1010.7 |
| 20260509153004 | 73 | 82 | 5.0 | 10.0 | 0.00 | 0.18 | 0.01 | 51 | 1010.8 |
| 20260509151508 | 73 | 146 | 4.0 | 8.0 | 0.00 | 0.18 | 0.01 | 48 | 1011.0 |
| 20260509150016 | 72 | 101 | 4.0 | 12.0 | 0.00 | 0.18 | 0.01 | 49 | 1011.1 |
| 20260509144528 | 73 | 130 | 6.0 | 12.0 | 0.00 | 0.18 | 0.01 | 48 | 1011.2 |
| 20260509143003 | 73 | 108 | 8.0 | 12.0 | 0.00 | 0.18 | 0.01 | 47 | 1011.1 |
| 20260509141504 | 72 | 203 | 6.0 | 14.0 | 0.00 | 0.18 | 0.01 | 50 | 1011.4 |
| 20260509140010 | 72 | 98 | 10.0 | 15.0 | 0.00 | 0.18 | 0.01 | 50 | 1011.1 |
| 20260509134514 | 73 | 118 | 5.0 | 14.0 | 0.00 | 0.18 | 0.01 | 50 | 1011.4 |
| 20260509133019 | 73 | 114 | 6.0 | 13.0 | 0.00 | 0.18 | 0.01 | 56 | 1011.6 |
| 20260509131503 | 72 | 145 | 8.0 | 14.0 | 0.00 | 0.18 | 0.01 | 47 | 1011.7 |
| 20260509130008 | 72 | 108 | 5.0 | 12.0 | 0.00 | 0.18 | 0.01 | 51 | 1011.7 |
| 20260509124515 | 72 | 80 | 6.0 | 11.0 | 0.00 | 0.18 | 0.01 | 50 | 1011.9 |
| 20260509123016 | 71 | 105 | 7.0 | 12.0 | 0.00 | 0.18 | 0.01 | 50 | 1011.9 |
| 20260509121526 | 71 | 69 | 6.0 | 10.0 | 0.00 | 0.18 | 0.01 | 46 | 1012.1 |
| 20260509120004 | 71 | 98 | 4.0 | 9.0 | 0.00 | 0.18 | 0.01 | 49 | 1012.1 |
| 20260509114510 | 70 | 90 | 4.0 | 13.0 | 0.00 | 0.18 | 0.01 | 47 | 1012.5 |
| 20260509113016 | 70 | 106 | 7.0 | 11.0 | 0.00 | 0.18 | 0.01 | 46 | 1012.8 |
| 20260509111521 | 70 | 94 | 5.0 | 10.0 | 0.00 | 0.18 | 0.01 | 51 | 1013.0 |
| 20260509110024 | 70 | 162 | 3.0 | 10.0 | 0.00 | 0.18 | 0.01 | 50 | 1013.0 |
| 20260509104508 | 69 | 81 | 4.0 | 9.0 | 0.00 | 0.18 | 0.01 | 55 | 1013.1 |
| 20260509103012 | 69 | 58 | 3.0 | 10.0 | 0.00 | 0.18 | 0.01 | 49 | 1013.1 |
| 20260509101518 | 69 | 123 | 5.0 | 9.0 | 0.00 | 0.18 | 0.01 | 58 | 1013.3 |
| 20260509100023 | 69 | 297 | 1.0 | 4.0 | 0.00 | 0.18 | 0.01 | 53 | 1013.6 |
| 20260509094527 | 69 | 117 | 2.0 | 4.0 | 0.00 | 0.18 | 0.01 | 54 | 1013.8 |
| 20260509093012 | 68 | 39 | 1.0 | 4.0 | 0.00 | 0.18 | 0.01 | 52 | 1014.0 |
| 20260509091505 | 67 | 342 | 1.0 | 4.0 | 0.00 | 0.18 | 0.01 | 55 | 1014.0 |
| 20260509090004 | 67 | 274 | 3.0 | 5.0 | 0.00 | 0.18 | 0.01 | 61 | 1014.1 |
| 20260509084511 | 66 | 311 | 1.0 | 4.0 | 0.00 | 0.18 | 0.01 | 64 | 1014.3 |
| 20260509083008 | 65 | 264 | 1.0 | 4.0 | 0.00 | 0.18 | 0.01 | 63 | 1014.4 |
| 20260509081520 | 64 | 283 | 2.0 | 4.0 | 0.00 | 0.18 | 0.01 | 66 | 1014.2 |
| 20260509080013 | 63 | 233 | 0.0 | 4.0 | 0.00 | 0.18 | 0.01 | 65 | 1014.3 |
| 20260509074503 | 62 | 259 | 2.0 | 4.0 | 0.00 | 0.18 | 0.01 | 73 | 1014.4 |
| 20260509073006 | 61 | 297 | 1.0 | 4.0 | 0.00 | 0.18 | 0.01 | 76 | 1014.4 |
| 20260509071511 | 61 | 257 | 2.0 | 4.0 | 0.00 | 0.18 | 0.01 | 73 | 1014.4 |
| 20260509070014 | 61 | 255 | 1.0 | 4.0 | 0.00 | 0.18 | 0.01 | 74 | 1014.4 |
| 20260509064508 | 60 | 319 | 0.0 | 1.0 | 0.00 | 0.18 | 0.01 | 73 | 1014.3 |
| 20260509063003 | 59 | 61 | 0.0 | 0.0 | 0.00 | 0.18 | 0.01 | 81 | 1014.4 |
| 20260509061515 | 58 | 61 | 0.0 | 0.0 | 0.00 | 0.18 | 0.01 | 84 | 1014.2 |
| 20260509060014 | 56 | 61 | 0.0 | 0.0 | 0.00 | 0.18 | 0.01 | 89 | 1014.3 |
| 20260509054518 | 53 | 61 | 0.0 | 0.0 | 0.00 | 0.18 | 0.01 | 93 | 1014.2 |
| 20260509053015 | 51 | 61 | 0.0 | 0.0 | 0.00 | 0.18 | 0.01 | 96 | 1014.1 |
| 20260509051508 | 49 | 61 | 0.0 | 0.0 | 0.00 | 0.18 | 0.01 | 94 | 1014.0 |
| 20260509050014 | 48 | 61 | 0.0 | 1.0 | 0.00 | 0.18 | 0.01 | 95 | 1013.8 |
| 20260509044517 | 47 | 61 | 1.0 | 2.0 | 0.00 | 0.18 | 0.01 | 92 | 1013.9 |
| 20260509043020 | 48 | 61 | 0.0 | 2.0 | 0.00 | 0.18 | 0.01 | 93 | 1013.8 |
| 20260509041528 | 49 | 61 | 0.0 | 2.0 | 0.00 | 0.18 | 0.01 | 94 | 1013.6 |
| 20260509040010 | 49 | 61 | 0.0 | 2.0 | 0.00 | 0.18 | 0.01 | 94 | 1013.7 |
| 20260509034513 | 49 | 61 | 1.0 | 2.0 | 0.00 | 0.18 | 0.01 | 94 | 1013.8 |
| 20260509033017 | 49 | 61 | 1.0 | 3.0 | 0.00 | 0.18 | 0.01 | 94 | 1013.6 |
| 20260509031528 | 50 | 61 | 0.0 | 5.0 | 0.00 | 0.18 | 0.01 | 94 | 1013.8 |
| 20260509030026 | 50 | 72 | 2.0 | 5.0 | 0.00 | 0.18 | 0.01 | 95 | 1013.9 |
| 20260509024510 | 50 | 78 | 0.0 | 0.0 | 0.00 | 0.18 | 0.01 | 94 | 1013.9 |
| 20260509023015 | 50 | 78 | 0.0 | 0.0 | 0.00 | 0.18 | 0.01 | 95 | 1013.9 |
| 20260509021521 | 50 | 78 | 0.0 | 0.0 | 0.00 | 0.18 | 0.01 | 94 | 1014.0 |
| 20260509020032 | 51 | 78 | 0.0 | 0.0 | 0.00 | 0.18 | 0.01 | 94 | 1013.9 |
| 20260509014538 | 51 | 229 | 0.0 | 0.0 | 0.00 | 0.18 | 0.01 | 94 | 1014.2 |
| 20260509013014 | 52 | 229 | 0.0 | 0.0 | 0.00 | 0.18 | 0.01 | 95 | 1014.3 |
| 20260509011518 | 52 | 229 | 0.0 | 2.0 | 0.01 | 0.18 | 0.01 | 95 | 1014.5 |
| 20260509010019 | 51 | 229 | 0.0 | 2.0 | 0.01 | 0.18 | 0.01 | 94 | 1014.5 |
| 20260509004527 | 52 | 229 | 0.0 | 0.0 | 0.01 | 0.18 | 0.01 | 94 | 1014.6 |
| 20260509003031 | 52 | 229 | 0.0 | 1.0 | 0.01 | 0.18 | 0.01 | 94 | 1014.6 |
| 20260509001504 | 52 | 229 | 0.0 | 1.0 | 0.00 | 0.17 | 0.00 | 94 | 1014.4 |
| 20260509000005 | 53 | 229 | 0.0 | 2.0 | 0.00 | 0.17 | 0.00 | 94 | 1014.3 |
| 20260508234504 | 53 | 229 | 0.0 | 0.0 | 0.00 | 0.17 | 0.00 | 93 | 1014.4 |
| 20260508233003 | 53 | 229 | 0.0 | 0.0 | 0.00 | 0.17 | 0.00 | 93 | 1014.5 |
| 20260508231504 | 54 | 229 | 0.0 | 4.0 | 0.00 | 0.17 | 0.00 | 93 | 1014.3 |
| 20260508230004 | 54 | 271 | 0.0 | 7.0 | 0.00 | 0.17 | 0.00 | 93 | 1014.5 |
| 20260508224504 | 54 | 36 | 0.0 | 0.0 | 0.00 | 0.17 | 0.00 | 93 | 1014.3 |
| 20260508223006 | 54 | 36 | 0.0 | 2.0 | 0.00 | 0.17 | 0.00 | 92 | 1014.3 |